This is the latest recevied weather packets stored in our database for station/object N6GPM. If no packets are shown the sender has not sent any weather packets the latest 10 day(s).
| Time | Temp. | Humidity | Pressure | Rain* | Wind** | Luminosity | Snow |
|---|---|---|---|---|---|---|---|
| 1788097795 | 22.22° C | 71% | 1017.2 hPa | 0 mm | - | 34 W/m² | - |
| 1788097491 | 22.22° C | 71% | 1017.2 hPa | 0 mm | - | 31 W/m² | - |
| 1788097186 | 22.22° C | 72% | 1017.2 hPa | 0 mm | - | 24 W/m² | - |
| 1788096882 | 21.67° C | 73% | 1017 hPa | 0 mm | - | 16 W/m² | - |
| 1788096577 | 21.67° C | 73% | 1016.9 hPa | 0 mm | - | 10 W/m² | - |
| 1788096273 | 22.22° C | 72% | 1016.9 hPa | 0 mm | - | 6 W/m² | - |
| 1788095972 | 21.67° C | 71% | 1016.5 hPa | 0 mm | - | 3 W/m² | - |
| 1788095672 | 21.67° C | 71% | 1016.7 hPa | 0 mm | - | 2 W/m² | - |
| 1788095366 | 21.67° C | 73% | 1016.7 hPa | 0 mm | - | 1 W/m² | - |
| 1788095062 | 21.67° C | 73% | 1016.8 hPa | 0 mm | - | 0 W/m² | - |
| 1788094761 | 21.67° C | 73% | 1016.6 hPa | 0 mm | - | 0 W/m² | - |
| 1788094456 | 21.67° C | 74% | 1016.6 hPa | 0 mm | - | 0 W/m² | - |
| 1788094154 | 21.67° C | 75% | 1016.5 hPa | 0 mm | - | 0 W/m² | - |
| 1788093850 | 21.67° C | 74% | 1016.4 hPa | 0 mm | - | 0 W/m² | - |
| 1788093546 | 21.67° C | 74% | 1016.5 hPa | 0 mm | - | 0 W/m² | - |
| 1788093243 | 21.67° C | 75% | 1016.2 hPa | 0 mm | - | 0 W/m² | - |
| 1788092940 | 21.67° C | 75% | 1016.4 hPa | 0 mm | - | 0 W/m² | - |
| 1788092635 | 21.67° C | 75% | 1016.2 hPa | 0 mm | - | 0 W/m² | - |
| 1788092330 | 21.67° C | 75% | 1016.3 hPa | 0 mm | - | 0 W/m² | - |
| 1788092029 | 21.67° C | 75% | 1016.5 hPa | 0 mm | - | 0 W/m² | - |
| 1788091724 | 21.67° C | 75% | 1016.3 hPa | 0 mm | - | 0 W/m² | - |
| 1788091420 | 21.67° C | 74% | 1016.5 hPa | 0 mm | - | 0 W/m² | - |
| 1788091116 | 21.67° C | 74% | 1016.4 hPa | 0 mm | - | 0 W/m² | - |
| 1788090812 | 21.67° C | 74% | 1016.2 hPa | 0 mm | - | 0 W/m² | - |
| 1788090508 | 21.67° C | 74% | 1016.3 hPa | 0 mm | - | 0 W/m² | - |
* Rain latest hour (hover to see other rain measurements)
** Current wind speed in m/s (hover to see current wind gust speed)